| time (UTC) | temp F | wind direction | speed MPH | gust MPH | rain 1hr in | rain 24hr in | rain mn in | humidity % | barometer mb |
| 20260901161559 | 96 | 231 | 8.0 | 15.0 | 0.00 | 0.00 | 0.00 | 35 | 1010.5 |
| 20260901160101 | 95 | 246 | 7.0 | 14.0 | 0.00 | 0.00 | 0.00 | 36 | 1010.6 |
| 20260901154553 | 93 | 194 | 9.0 | 16.0 | 0.00 | 0.00 | 0.00 | 37 | 1010.5 |
| 20260901153049 | 92 | 238 | 6.0 | 16.0 | 0.00 | 0.00 | 0.00 | 38 | 1010.6 |
| 20260901151547 | 91 | 260 | 8.0 | 16.0 | 0.00 | 0.00 | 0.00 | 39 | 1010.6 |
| 20260901150043 | 89 | 211 | 7.0 | 16.0 | 0.00 | 0.00 | 0.00 | 41 | 1010.7 |
| 20260901144538 | 87 | 209 | 7.0 | 13.0 | 0.00 | 0.00 | 0.00 | 43 | 1010.7 |
| 20260901143043 | 84 | 209 | 8.0 | 13.0 | 0.00 | 0.00 | 0.00 | 46 | 1010.9 |
| 20260901141532 | 84 | 225 | 8.0 | 13.0 | 0.00 | 0.00 | 0.00 | 46 | 1011.1 |
| 20260901140042 | 83 | 207 | 7.0 | 12.0 | 0.00 | 0.00 | 0.00 | 47 | 1011.2 |
| 20260901134527 | 81 | 215 | 8.0 | 16.0 | 0.00 | 0.00 | 0.00 | 49 | 1011.2 |
| 20260901133028 | 79 | 219 | 9.0 | 14.0 | 0.00 | 0.00 | 0.00 | 52 | 1011.0 |
| 20260901131532 | 77 | 192 | 7.0 | 12.0 | 0.00 | 0.00 | 0.00 | 56 | 1011.0 |
| 20260901130035 | 74 | 195 | 5.0 | 8.0 | 0.00 | 0.00 | 0.00 | 61 | 1010.9 |
| 20260901124523 | 71 | 186 | 1.0 | 4.0 | 0.00 | 0.00 | 0.00 | 64 | 1010.8 |
| 20260901123023 | 71 | 189 | 0.0 | 4.0 | 0.00 | 0.00 | 0.00 | 64 | 1010.7 |
| 20260901121521 | 70 | 188 | 3.0 | 6.0 | 0.00 | 0.00 | 0.00 | 64 | 1010.6 |
| 20260901120034 | 70 | 176 | 5.0 | 7.0 | 0.00 | 0.00 | 0.00 | 64 | 1010.6 |
| 20260901114521 | 70 | 181 | 4.0 | 5.0 | 0.00 | 0.00 | 0.00 | 63 | 1010.5 |
| 20260901113018 | 71 | 182 | 2.0 | 4.0 | 0.00 | 0.00 | 0.00 | 62 | 1010.6 |
| 20260901111515 | 72 | 186 | 4.0 | 5.0 | 0.00 | 0.00 | 0.00 | 61 | 1010.4 |
| 20260901110012 | 72 | 182 | 3.0 | 4.0 | 0.00 | 0.00 | 0.00 | 60 | 1010.4 |
| 20260901104510 | 73 | 188 | 4.0 | 5.0 | 0.00 | 0.00 | 0.00 | 58 | 1010.4 |
| 20260901103007 | 74 | 223 | 1.0 | 5.0 | 0.00 | 0.00 | 0.00 | 57 | 1010.1 |
| 20260901101504 | 74 | 198 | 3.0 | 5.0 | 0.00 | 0.00 | 0.00 | 56 | 1010.1 |
| 20260901100103 | 75 | 210 | 4.0 | 7.0 | 0.00 | 0.00 | 0.00 | 55 | 1010.1 |
| 20260901094608 | 76 | 193 | 6.0 | 9.0 | 0.00 | 0.00 | 0.00 | 54 | 1010.0 |
| 20260901093101 | 76 | 201 | 5.0 | 10.0 | 0.00 | 0.00 | 0.00 | 53 | 1010.0 |
| 20260901091558 | 76 | 199 | 6.0 | 10.0 | 0.00 | 0.00 | 0.00 | 54 | 1010.0 |
| 20260901090100 | 76 | 210 | 5.0 | 7.0 | 0.00 | 0.00 | 0.00 | 54 | 1010.0 |
| 20260901084554 | 76 | 201 | 4.0 | 7.0 | 0.00 | 0.00 | 0.00 | 53 | 1009.9 |
| 20260901083052 | 77 | 214 | 4.0 | 7.0 | 0.00 | 0.00 | 0.00 | 52 | 1009.6 |
| 20260901081558 | 77 | 196 | 5.0 | 7.0 | 0.00 | 0.00 | 0.00 | 52 | 1009.5 |
| 20260901080048 | 77 | 211 | 5.0 | 8.0 | 0.00 | 0.00 | 0.00 | 52 | 1009.4 |
| 20260901074546 | 78 | 199 | 6.0 | 9.0 | 0.00 | 0.00 | 0.00 | 51 | 1009.4 |
| 20260901073046 | 79 | 195 | 6.0 | 10.0 | 0.00 | 0.00 | 0.00 | 51 | 1009.3 |
| 20260901071546 | 79 | 196 | 8.0 | 11.0 | 0.00 | 0.00 | 0.00 | 51 | 1009.3 |
| 20260901070044 | 78 | 189 | 7.0 | 12.0 | 0.00 | 0.00 | 0.00 | 53 | 1009.3 |
| 20260901064544 | 78 | 193 | 6.0 | 9.0 | 0.00 | 0.00 | 0.00 | 53 | 1009.2 |
| 20260901063042 | 78 | 186 | 6.0 | 9.0 | 0.00 | 0.00 | 0.00 | 54 | 1009.3 |
| 20260901061540 | 78 | 182 | 5.0 | 7.0 | 0.00 | 0.00 | 0.00 | 54 | 1009.3 |
| 20260901060037 | 79 | 174 | 5.0 | 7.0 | 0.00 | 0.00 | 0.00 | 52 | 1009.3 |
| 20260901054538 | 79 | 179 | 6.0 | 8.0 | 0.00 | 0.00 | 0.00 | 52 | 1009.2 |
| 20260901053052 | 80 | 178 | 5.0 | 8.0 | 0.00 | 0.00 | 0.00 | 52 | 1009.2 |
| 20260901051534 | 80 | 184 | 5.0 | 7.0 | 0.00 | 0.00 | 0.00 | 51 | 1009.1 |
| 20260901050028 | 81 | 172 | 6.0 | 9.0 | 0.00 | 0.00 | 0.00 | 50 | 1009.0 |
| 20260901044527 | 82 | 170 | 6.0 | 10.0 | 0.00 | 0.00 | 0.00 | 48 | 1008.9 |
| 20260901043028 | 83 | 180 | 7.0 | 10.0 | 0.00 | 0.00 | 0.00 | 47 | 1009.0 |
| 20260901041526 | 83 | 167 | 8.0 | 11.0 | 0.00 | 0.00 | 0.00 | 47 | 1009.1 |
| 20260901040026 | 84 | 171 | 7.0 | 11.0 | 0.00 | 0.00 | 0.00 | 46 | 1009.2 |
| 20260901034529 | 84 | 179 | 8.0 | 12.0 | 0.00 | 0.00 | 0.00 | 46 | 1009.0 |
| 20260901033028 | 84 | 158 | 6.0 | 9.0 | 0.00 | 0.00 | 0.00 | 45 | 1008.8 |
| 20260901031525 | 85 | 156 | 4.0 | 8.0 | 0.00 | 0.00 | 0.00 | 45 | 1008.7 |
| 20260901030024 | 85 | 178 | 6.0 | 10.0 | 0.00 | 0.00 | 0.00 | 44 | 1008.2 |
| 20260901024524 | 85 | 194 | 5.0 | 10.0 | 0.00 | 0.00 | 0.00 | 44 | 1007.9 |
| 20260901023035 | 85 | 141 | 4.0 | 7.0 | 0.00 | 0.00 | 0.00 | 45 | 1007.6 |
| 20260901021525 | 86 | 163 | 3.0 | 6.0 | 0.00 | 0.00 | 0.00 | 44 | 1007.1 |
| 20260901020022 | 87 | 153 | 3.0 | 5.0 | 0.00 | 0.00 | 0.00 | 42 | 1007.0 |
| 20260901014521 | 88 | 155 | 2.0 | 5.0 | 0.00 | 0.00 | 0.00 | 41 | 1006.8 |
| 20260901013021 | 89 | 136 | 2.0 | 5.0 | 0.00 | 0.00 | 0.00 | 39 | 1006.5 |
| 20260901011524 | 92 | 142 | 2.0 | 5.0 | 0.00 | 0.00 | 0.00 | 36 | 1006.5 |
| 20260901010020 | 94 | 148 | 2.0 | 7.0 | 0.00 | 0.00 | 0.00 | 34 | 1006.4 |
| 20260901004522 | 96 | 136 | 3.0 | 6.0 | 0.00 | 0.00 | 0.00 | 31 | 1006.4 |
| 20260901003019 | 97 | 173 | 2.0 | 10.0 | 0.00 | 0.00 | 0.00 | 30 | 1006.4 |
| 20260901001519 | 99 | 187 | 6.0 | 14.0 | 0.00 | 0.00 | 0.00 | 28 | 1006.4 |
| 20260901000017 | 100 | 187 | 11.0 | 15.0 | 0.00 | 0.00 | 0.00 | 26 | 1006.4 |
| 20260831234517 | 100 | 169 | 11.0 | 16.0 | 0.00 | 0.00 | 0.00 | 26 | 1006.3 |
| 20260831233016 | 101 | 120 | 9.0 | 18.0 | 0.00 | 0.00 | 0.00 | 27 | 1006.4 |
| 20260831231515 | 102 | 143 | 12.0 | 16.0 | 0.00 | 0.00 | 0.00 | 26 | 1006.4 |
| 20260831230015 | 103 | 186 | 11.0 | 21.0 | 0.00 | 0.00 | 0.00 | 25 | 1006.4 |
| 20260831224514 | 103 | 177 | 12.0 | 19.0 | 0.00 | 0.00 | 0.00 | 25 | 1006.4 |
| 20260831223018 | 103 | 167 | 10.0 | 18.0 | 0.00 | 0.00 | 0.00 | 26 | 1006.5 |
| 20260831221515 | 103 | 164 | 10.0 | 18.0 | 0.00 | 0.00 | 0.00 | 26 | 1006.5 |
| 20260831220013 | 104 | 193 | 7.0 | 19.0 | 0.00 | 0.00 | 0.00 | 27 | 1006.8 |
| 20260831214514 | 105 | 209 | 11.0 | 22.0 | 0.00 | 0.00 | 0.00 | 25 | 1006.8 |
| 20260831213013 | 105 | 209 | 9.0 | 20.0 | 0.00 | 0.00 | 0.00 | 26 | 1006.8 |
| 20260831211514 | 106 | 181 | 8.0 | 20.0 | 0.00 | 0.00 | 0.00 | 25 | 1007.0 |
| 20260831210011 | 105 | 181 | 13.0 | 21.0 | 0.00 | 0.00 | 0.00 | 25 | 1007.2 |
| 20260831204511 | 105 | 224 | 13.0 | 21.0 | 0.00 | 0.00 | 0.00 | 26 | 1007.4 |
| 20260831203013 | 105 | 194 | 12.0 | 21.0 | 0.00 | 0.00 | 0.00 | 26 | 1007.5 |
| 20260831201510 | 106 | 194 | 7.0 | 20.0 | 0.00 | 0.00 | 0.00 | 26 | 1007.6 |
| 20260831200015 | 105 | 190 | 9.0 | 23.0 | 0.00 | 0.00 | 0.00 | 27 | 1007.8 |
| 20260831194507 | 105 | 204 | 11.0 | 19.0 | 0.00 | 0.00 | 0.00 | 26 | 1007.8 |
| 20260831193006 | 105 | 184 | 9.0 | 21.0 | 0.00 | 0.00 | 0.00 | 28 | 1007.9 |
| 20260831191506 | 105 | 192 | 13.0 | 23.0 | 0.00 | 0.00 | 0.00 | 27 | 1008.0 |
| 20260831190003 | 104 | 194 | 13.0 | 23.0 | 0.00 | 0.00 | 0.00 | 29 | 1008.1 |
| 20260831184502 | 104 | 215 | 12.0 | 26.0 | 0.00 | 0.00 | 0.00 | 29 | 1008.4 |
| 20260831183100 | 103 | 173 | 15.0 | 22.0 | 0.00 | 0.00 | 0.00 | 29 | 1008.4 |
| 20260831181600 | 103 | 207 | 13.0 | 22.0 | 0.00 | 0.00 | 0.00 | 30 | 1008.5 |
| 20260831180055 | 102 | 192 | 12.0 | 25.0 | 0.00 | 0.00 | 0.00 | 31 | 1008.6 |
| 20260831174553 | 101 | 187 | 13.0 | 21.0 | 0.00 | 0.00 | 0.00 | 32 | 1008.9 |
| 20260831173052 | 100 | 173 | 13.0 | 23.0 | 0.00 | 0.00 | 0.00 | 32 | 1009.0 |
| 20260831171552 | 99 | 193 | 15.0 | 23.0 | 0.00 | 0.00 | 0.00 | 33 | 1009.1 |
| 20260831170045 | 97 | 201 | 12.0 | 19.0 | 0.00 | 0.00 | 0.00 | 35 | 1009.1 |
| 20260831164555 | 96 | 202 | 10.0 | 21.0 | 0.00 | 0.00 | 0.00 | 35 | 1009.1 |
| 20260831163041 | 94 | 186 | 8.0 | 20.0 | 0.00 | 0.00 | 0.00 | 36 | 1009.2 |